Weather History for EBLB - September, 2013

Change the Weather History Date:

Tuesday, September 10, 2013

  Actual Average Record
Temperature  
Mean Temperature 50 °F -  
Max Temperature 55 °F 57 °F 77 °F (1999)
Min Temperature 44 °F 46 °F 35 °F (1996)
Degree Days  
Heating Degree Days 16    
Moisture  
Dew Point 46 °F    
Average Humidity 93    
Maximum Humidity 100    
Minimum Humidity 72    
Precipitation  
Precipitation 0.08 in - - ()
Sea Level Pressure  
Sea Level Pressure 29.95 in    
Wind  
Wind Speed 9 mph ()    
Max Wind Speed 15 mph    
Max Gust Speed 34 mph    
Visibility 5.6 miles    
Events Rain    
Averages and records for this station are not official NWS values.
T = Trace of Precipitation, MM = Missing Value Source: Averaged Metar Reports

Daily Weather History Graph

Daily Weather History Graph

Search for Another Location

Airport or City:

Trip Planner

Search our weather history database for the weather conditions in past years. The results will help you decide how hot, cold, wet, or windy it might be!

Date:

Astronomy

Sep. 10, 2013 Rise Set
Actual Time 7:03 AM CEST 8:00 PM CEST
Civil Twilight 6:30 AM CEST 8:33 PM CEST
Nautical Twilight 5:50 AM CEST 9:13 PM CEST
Astronomical Twilight 5:07 AM CEST 9:55 PM CEST
Moon 12:48 PM CEST (9/10) 10:12 PM CEST (9/10)
Length of Visible Light 14h 03m
Length of Day
12h 56m
Waxing Crescent, 25% of the Moon is Illuminated
Sep 10
Waxing Crescent
Sep 12
First Quarter
Sep 19
Full
Sep 27
Last Quarter
Oct 5
New

Hourly Weather History & Observations

Time (CEST) Temp. Windchill Dew Point Humidity Pressure Visibility Wind Dir Wind Speed Gust Speed Precip Events Conditions
12:09 AM 50.0 °F - 50.0 °F 100% 29.86 in 6.2 mi South 9.2 mph - N/A   Mostly Cloudy
12:25 AM 50.0 °F - 50.0 °F 100% 29.86 in 6.2 mi SW 5.8 mph - N/A   Mostly Cloudy
1:25 AM 46.4 °F 40.1 °F 46.4 °F 100% 29.89 in 5.6 mi NW 15.0 mph - N/A   Mostly Cloudy
1:49 AM 46.4 °F 41.9 °F 44.6 °F 93% 29.89 in 6.2 mi WNW 9.2 mph - N/A   Mostly Cloudy
1:55 AM 46.4 °F 41.9 °F 44.6 °F 93% 29.89 in 6.2 mi WNW 9.2 mph - N/A   Mostly Cloudy
2:00 AM 46 °F - 45 °F 95% 29.91 in 25 mi WNW 8.9 mph - -   Clear
2:04 AM 46.4 °F 42.4 °F 44.6 °F 93% 29.89 in 6.2 mi WNW 8.1 mph - N/A   Mostly Cloudy
2:25 AM 44.6 °F 40.7 °F 44.6 °F 100% 29.89 in 6.2 mi West 6.9 mph - N/A   Mostly Cloudy
3:25 AM 44.6 °F 38.4 °F 44.6 °F 100% 29.89 in 6.2 mi WNW 12.7 mph 25.3 mph N/A   Mostly Cloudy
3:35 AM 44.6 °F 38.4 °F 44.6 °F 100% 29.89 in 6.2 mi WNW 12.7 mph 26.5 mph N/A   Mostly Cloudy
3:49 AM 44.6 °F 39.2 °F 44.6 °F 100% 29.92 in 3.1 mi WNW 10.4 mph 23.0 mph N/A   Overcast
4:25 AM 44.6 °F 39.2 °F 44.6 °F 100% 29.92 in 5.0 mi WNW 10.4 mph - N/A   Mostly Cloudy
4:55 AM 44.6 °F 39.7 °F 44.6 °F 100% 29.92 in 3.1 mi WNW 9.2 mph - N/A   Overcast
5:00 AM 44 °F - 44 °F 99% 29.96 in 4 mi West 8.9 mph - -   Partly Cloudy
5:25 AM 44.6 °F 40.2 °F 44.6 °F 100% 29.92 in 4.3 mi West 8.1 mph - N/A   Mostly Cloudy
5:35 AM 44.6 °F 40.2 °F 44.6 °F 100% 29.92 in - West 8.1 mph - N/A   Overcast
5:49 AM 44.6 °F 39.7 °F 44.6 °F 100% 29.92 in - West 9.2 mph - N/A   Mostly Cloudy
6:04 AM 44.6 °F 40.2 °F 44.6 °F 100% 29.92 in - West 8.1 mph - N/A   Overcast
6:14 AM 44.6 °F 40.7 °F 44.6 °F 100% 29.92 in 1.8 mi West 6.9 mph - N/A   Mostly Cloudy
6:25 AM 44.6 °F 40.7 °F 44.6 °F 100% 29.92 in 0.8 mi West 6.9 mph - N/A   Mostly Cloudy
7:25 AM 44.6 °F 40.7 °F 44.6 °F 100% 29.95 in 1.2 mi West 6.9 mph - N/A   Overcast
7:52 AM 46.4 °F 42.9 °F 44.6 °F 93% 29.95 in 1.9 mi West 6.9 mph - N/A   Overcast
8:25 AM 46.4 °F 42.4 °F 44.6 °F 93% 29.95 in 3.7 mi West 8.1 mph 24.2 mph N/A   Overcast
9:07 AM 46.4 °F 42.4 °F 44.6 °F 93% 29.95 in 5.0 mi West 8.1 mph - N/A   Mostly Cloudy
9:25 AM 44.6 °F 40.2 °F 44.6 °F 100% 29.95 in 5.0 mi West 8.1 mph - N/A   Mostly Cloudy
10:25 AM 46.4 °F 41.9 °F 46.4 °F 100% 29.98 in 5.0 mi WNW 9.2 mph 25.3 mph N/A   Mostly Cloudy
10:54 AM 48.2 °F - 46.4 °F 93% 29.98 in 6.2 mi WNW 8.1 mph 24.2 mph N/A   Mostly Cloudy
11:00 AM 48 °F - 46 °F 91% 29.98 in 9 mi WNW 6.7 mph - - Rain Light Rain Showers
11:25 AM 48.2 °F - 44.6 °F 87% 29.98 in 6.2 mi West 9.2 mph 23.0 mph N/A   Mostly Cloudy
12:06 PM 50.0 °F - 46.4 °F 87% 29.98 in 6.2 mi West 9.2 mph - N/A   Mostly Cloudy
12:25 PM 51.8 °F - 44.6 °F 76% 29.98 in 6.2 mi West 10.4 mph 24.2 mph N/A   Mostly Cloudy
1:25 PM 51.8 °F - 44.6 °F 76% 29.98 in 6.2 mi West 10.4 mph - N/A   Mostly Cloudy
2:00 PM 51 °F - 46 °F 75% 29.99 in 12 mi West 8.9 mph - -   Partly Cloudy
2:25 PM 53.6 °F - 44.6 °F 72% 29.98 in 6.2 mi West 10.4 mph 24.2 mph N/A   Mostly Cloudy
3:14 PM 51.8 °F - 44.6 °F 76% 29.98 in 6.2 mi West 11.5 mph - N/A   Mostly Cloudy
3:25 PM 53.6 °F - 46.4 °F 77% 29.98 in 6.2 mi West 11.5 mph - N/A   Mostly Cloudy
3:49 PM 51.8 °F - 44.6 °F 76% 29.98 in 3.1 mi West 12.7 mph - N/A   Mostly Cloudy
3:50 PM 51.8 °F - 44.6 °F 76% 29.98 in 2.8 mi West 13.8 mph 34.5 mph N/A   Mostly Cloudy
3:51 PM 50.0 °F - 44.6 °F 82% 30.01 in - West 13.8 mph 34.5 mph N/A   Mostly Cloudy
4:04 PM 48.2 °F - 46.4 °F 93% 29.98 in 6.2 mi WNW 8.1 mph - N/A   Mostly Cloudy
4:25 PM 50.0 °F - 48.2 °F 94% 29.98 in 6.2 mi West 8.1 mph - N/A   Mostly Cloudy
4:34 PM 50.0 °F - 48.2 °F 94% 29.98 in 6.2 mi West 9.2 mph - N/A   Mostly Cloudy
4:44 PM 50.0 °F - 48.2 °F 94% 29.98 in 6.2 mi West 8.1 mph - N/A   Mostly Cloudy
5:00 PM 51 °F - 48 °F 86% 30.00 in 19 mi West 11.2 mph - -   Clear
5:25 PM 51.8 °F - 48.2 °F 88% 29.98 in 6.2 mi West 10.4 mph - N/A   Mostly Cloudy
5:44 PM 51.8 °F - 46.4 °F 82% 29.98 in 6.2 mi West 12.7 mph 25.3 mph N/A   Mostly Cloudy
5:49 PM 51.8 °F - 46.4 °F 82% 29.98 in 6.2 mi West 12.7 mph - N/A   Mostly Cloudy
6:25 PM 48.2 °F - 46.4 °F 93% 30.01 in 6.2 mi WNW 12.7 mph - N/A   Mostly Cloudy
7:04 PM 48.2 °F - 48.2 °F 100% 29.98 in 6.2 mi West 8.1 mph - N/A   Mostly Cloudy
7:09 PM 48.2 °F - 48.2 °F 100% 29.98 in 5.6 mi West 8.1 mph - N/A   Mostly Cloudy
7:25 PM 48.2 °F - 48.2 °F 100% 29.98 in 4.3 mi West 9.2 mph - N/A   Mostly Cloudy
8:00 PM 47 °F - 46 °F 95% 30.02 in 7 mi West 11.2 mph - - Rain Drizzle
8:04 PM 46.4 °F 41.5 °F 46.4 °F 100% 29.98 in 3.1 mi West 10.4 mph 23.0 mph N/A   Mostly Cloudy
8:15 PM 46.4 °F 41.5 °F 46.4 °F 100% 29.98 in 4.3 mi West 10.4 mph - N/A   Mostly Cloudy
8:25 PM 46.4 °F 41.5 °F 46.4 °F 100% 29.98 in 6.2 mi West 10.4 mph 23.0 mph N/A   Mostly Cloudy
8:35 PM 46.4 °F 41.1 °F 46.4 °F 100% 29.98 in 6.2 mi West 11.5 mph - N/A   Mostly Cloudy
8:39 PM 46.4 °F 41.1 °F 46.4 °F 100% 29.98 in 6.2 mi West 11.5 mph - N/A   Mostly Cloudy
9:25 PM 46.4 °F 40.7 °F 46.4 °F 100% 29.98 in 6.2 mi West 12.7 mph - N/A   Mostly Cloudy
10:25 PM 46.4 °F 40.4 °F 44.6 °F 93% 29.98 in 6.2 mi West 13.8 mph 26.5 mph N/A   Mostly Cloudy
11:00 PM 46 °F - 46 °F 97% 29.99 in 6 mi West 11.2 mph - - Rain Drizzle
11:05 PM 46.4 °F 40.7 °F 46.4 °F 100% 29.95 in 4.3 mi West 12.7 mph 24.2 mph N/A   Overcast
11:25 PM 46.4 °F 41.1 °F 46.4 °F 100% 29.95 in - West 11.5 mph - N/A   Mostly Cloudy
11:39 PM 46.4 °F 41.1 °F 46.4 °F 100% 29.95 in 2.8 mi West 11.5 mph 26.5 mph N/A   Overcast